Tampa, FL

12:32 PM EST on February 26, 2017 (GMT -0500)
MacDill Air Force Base

Weather History for KMCF - November, 2013

Change the Weather History Date:

Wednesday, November 20, 2013

  Actual Average Record
Temperature  
Mean Temperature 73 °F -  
Max Temperature 84 °F 75 °F 86 °F (1998)
Min Temperature 62 °F 57 °F 38 °F (2008)
Cooling Degree Days 8    
Growing Degree Days 23 (Base 50)    
Moisture  
Dew Point 68 °F    
Average Humidity 90    
Maximum Humidity 100    
Minimum Humidity 67    
Precipitation  
Precipitation 0.00 in - - ()
Sea Level Pressure  
Sea Level Pressure 30.05 in    
Wind  
Wind Speed 9 mph (ENE)    
Max Wind Speed 15 mph    
Max Gust Speed -    
Visibility 10 miles    
Events Rain    
Averages and records for this station are not official NWS values.
T = Trace of Precipitation, MM = Missing Value Source: NWS Daily Summary

Daily Weather History Graph

Daily Weather History Graph

Search for Another Location

Airport or City:

Trip Planner

Search our weather history database for the weather conditions in past years. The results will help you decide how hot, cold, wet, or windy it might be!

Date:

Astronomy

Nov. 20, 2013 Rise Set
Actual Time 6:55 AM EST 5:35 PM EST
Civil Twilight 6:30 AM EST 6:00 PM EST
Nautical Twilight 6:01 AM EST 6:29 PM EST
Astronomical Twilight 5:33 AM EST 6:57 PM EST
Moon 8:17 PM EST (11/20) 9:19 AM EST (11/20)
Length of Visible Light 11h 30m
Length of Day
10h 40m
Waning Gibbous, 91% of the Moon is Illuminated
Nov 20
Waning Gibbous
Nov 25
Last Quarter
Dec 2
New
Dec 9
First Quarter
Dec 17
Full

Hourly Weather History & Observations

Time (EST) Temp. Heat Index Dew Point Humidity Pressure Visibility Wind Dir Wind Speed Gust Speed Precip Events Conditions
12:58 AM 64.2 °F - 62.4 °F 94% 29.99 in 10.0 mi ENE 11.5 mph - N/A   Mostly Cloudy
1:58 AM 64.8 °F - 63.3 °F 95% 30.00 in 10.0 mi ENE 6.9 mph - N/A   Overcast
2:58 AM 64.8 °F - 62.8 °F 93% 30.00 in 10.0 mi ENE 9.2 mph - N/A   Overcast
3:58 AM 64.8 °F - 63.1 °F 94% 30.00 in 10.0 mi NE 5.8 mph - N/A   Overcast
4:58 AM 64.8 °F - 63.0 °F 94% 30.00 in 10.0 mi ENE 9.2 mph - N/A   Overcast
5:58 AM 62.6 °F - 61.5 °F 96% 30.01 in 10.0 mi ENE 6.9 mph - N/A   Partly Cloudy
6:58 AM 63.1 °F - 63.0 °F 99% 30.03 in 10.0 mi ENE 6.9 mph - N/A   Mostly Cloudy
7:58 AM 65.5 °F - 65.3 °F 99% 30.05 in 10.0 mi NE 5.8 mph - N/A   Partly Cloudy
8:06 AM 66.2 °F - 66.2 °F 100% 30.05 in 10.0 mi ENE 6.9 mph - N/A Rain Light Rain
8:24 AM 66.2 °F - 66.2 °F 100% 30.05 in 10.0 mi ENE 6.9 mph - N/A   Scattered Clouds
8:58 AM 68.4 °F - 67.5 °F 97% 30.07 in 10.0 mi ENE 9.2 mph - 0.00 in   Scattered Clouds
9:58 AM 70.9 °F - 67.3 °F 88% 30.07 in 10.0 mi ENE 8.1 mph - N/A   Partly Cloudy
10:01 AM 71.6 °F - 68.0 °F 88% 30.07 in 10.0 mi ENE 6.9 mph - N/A   Light Drizzle
10:14 AM 71.6 °F - 68.0 °F 88% 30.08 in 10.0 mi North 3.5 mph - N/A   Mostly Cloudy
10:58 AM 74.7 °F - 69.8 °F 85% 30.07 in 10.0 mi ENE 6.9 mph - 0.00 in   Clear
11:58 AM 79.3 °F - 71.4 °F 77% 30.05 in 10.0 mi East 9.2 mph - N/A   Scattered Clouds
12:58 PM 81.7 °F 86.7 °F 72.5 °F 74% 30.03 in 10.0 mi East 11.5 mph - N/A   Partly Cloudy
1:58 PM 82.4 °F 87.4 °F 72.3 °F 71% 30.01 in 10.0 mi ENE 8.1 mph - N/A   Partly Cloudy
2:58 PM 84.4 °F 90.3 °F 72.5 °F 67% 30.00 in 10.0 mi NE 6.9 mph - N/A   Partly Cloudy
3:58 PM 79.9 °F - 72.0 °F 77% 30.02 in 10.0 mi NNE 8.1 mph - N/A   Scattered Clouds
4:58 PM 77.5 °F - 72.1 °F 83% 30.03 in 10.0 mi ENE 15.0 mph - N/A   Mostly Cloudy
5:58 PM 75.0 °F - 70.5 °F 86% 30.05 in 10.0 mi East 12.7 mph - N/A   Overcast
6:58 PM 73.6 °F - 71.4 °F 93% 30.06 in 10.0 mi East 12.7 mph - N/A   Scattered Clouds
7:58 PM 72.5 °F - 71.1 °F 95% 30.09 in 10.0 mi East 13.8 mph - N/A   Mostly Cloudy
8:58 PM 72.0 °F - 70.7 °F 96% 30.09 in 10.0 mi East 13.8 mph - N/A   Scattered Clouds
9:58 PM 71.4 °F - 70.9 °F 98% 30.10 in 10.0 mi East 13.8 mph - N/A   Mostly Cloudy
10:58 PM 71.4 °F - 70.2 °F 96% 30.11 in 10.0 mi East 11.5 mph - N/A   Mostly Cloudy
11:58 PM 70.9 °F - 70.5 °F 99% 30.11 in 10.0 mi East 9.2 mph - N/A   Overcast